星链-1694 (STARLINK-1694 )

导读 | 星芒AI

STARLINK-1694 是 SpaceX Starlink 卫星互联网项目中的第 1694 颗卫星,属于低轨卫星群的一部分。该卫星于 2022 年发射,旨在为全球用户提供高速、低延迟的宽带互联网服务。它运行在约 550 公里的轨道高度,采用先进的通信技术,支持全球范围内的网络连接。Starlink 项目致力于改善偏远地区的网络覆盖,推动全球数字包容。STARLINK-1694 在提升互联网接入能力方面发挥着重要作用。

基本信息
目录编号:
46544
目录名称:
STARLINK-1694
国际标识:
2020-070N
轨道中心:
EARTH
卫星名称:
星链-1694
卫星全名:
星链-1694 (STARLINK-1694 )
卫星状态:
已陨落 最后检测时间 2025-05-08
发射日期:
2020-10-06 UTC
国别 :
美国 (US)
星等 :
--
轨道信息
数据来源 国际轨道数据
星历时间: 2025-05-08T12:31:32+0800
轨道信息已过期174天
半长轴: 6520.154km
偏心率: 0.0005363
轨道倾角: 53.026°
近地点辐角 355.170°
升交点赤经 31.573°
平近点角 129.236°
近地点: 138.522km
远地点: 145.516km
周期: 87.327分钟
每日圈数: 16.489826
详细信息
固有亮度:
5
最大亮度:
2.5
卫星平台:
Starlink V1.0
覆盖范围:
全球
运营商:
太空探索技术公司
运营商所在国:
美国
制造商(研发单位):
太空探索技术公司
制造商所在国:
美国
使用方式:
暂无
卫星简介
星链(Starlink)计划是由太空探索技术公司(SpaceX)提出的一个巨型低轨卫星互联网星座项目,计划在2019年至2024年间在太空搭建由约1.2万颗卫星组成的“星链”网络,其中1584颗将部署在地球上空550千米处的近地轨道,并从2020年开始工作。该卫星仍在工作。